Location: Newark
(48.1500°N, 2.9667°W)
Time: 10:29:06
(UTC+00:00)

A-11 Canister half - Pass Details

Date: 24 January 2020
Orbit: 1517 x 1683 km, 47.2° (Epoch: 19 February)

Event Time Altitude Azimuth Distance (km) Brightness Sun altitude
Exits shadow 05:24:24 39° 267° (W) 2,131 9.2 -24.1°
Maximum altitude 05:27:57 61° 207° (SSW) 1,696 9.0 -23.5°
Drops below altitude 10° 05:37:05 10° 130° (SE) 3,718 11.8 -22.0°
Sets 05:40:12 0° 127° (SE) 4,718 12.5 -21.4°
